EW7225 Weather Reports


time (UTC)temp
F
wind
direction
speed
knots
gust
knots
rain 1hr
in
rain 24hr
in
rain mn
in
humidity
%
barometer
mb
20260507223519 59 0.0 0.0 0.00 0.08 0.00 80 1011.9
20260507222533 60 0.0 0.0 0.00 0.08 0.00 82 1011.9
20260507221526 60 0.0 0.0 0.00 0.08 0.00 82 1012.1
20260507220522 60 0.0 0.0 0.00 0.08 0.00 82 1012.0
20260507215534 60 283 0.0 0.9 0.00 0.08 0.08 81 1012.0
20260507214527 60 0.0 0.0 0.00 0.08 0.08 82 1012.1
20260507213540 61 0.0 0.0 0.00 0.08 0.08 82 1012.2
20260507212533 60 0.0 0.0 0.00 0.08 0.08 81 1012.3
20260507211527 61 0.0 0.0 0.00 0.08 0.08 80 1012.4
20260507210522 61 0.0 0.0 0.00 0.08 0.08 81 1012.4
20260507205535 60 7 0.9 1.7 0.00 0.08 0.08 80 1012.2
20260507204530 61 0.0 0.0 0.00 0.08 0.08 80 1012.2
20260507203519 62 278 0.9 1.7 0.00 0.08 0.08 79 1012.3
20260507202533 62 299 0.9 1.7 0.00 0.08 0.08 76 1012.4
20260507201521 62 307 0.9 1.7 0.00 0.08 0.08 76 1012.5
20260507200533 62 0.0 0.0 0.00 0.08 0.08 77 1012.5
20260507195522 63 289 1.7 2.6 0.00 0.08 0.08 76 1012.4
20260507194533 63 292 2.6 5.2 0.00 0.08 0.08 71 1012.5
20260507193522 63 0.0 0.0 0.00 0.08 0.08 71 1012.5
20260507192533 63 268 0.0 0.9 0.00 0.08 0.08 71 1012.5
20260507191541 63 284 1.7 2.6 0.00 0.08 0.08 70 1012.4
20260507190533 63 287 1.7 3.5 0.00 0.08 0.08 70 1012.3
20260507185527 64 295 0.9 1.7 0.00 0.08 0.08 68 1012.4
20260507184520 65 341 0.0 1.7 0.00 0.08 0.08 68 1012.2
20260507183534 65 0.0 0.0 0.00 0.08 0.08 67 1012.4
20260507182527 66 313 0.9 1.7 0.00 0.08 0.08 65 1012.3
20260507181521 66 312 0.0 0.9 0.00 0.08 0.08 64 1012.4
20260507180534 67 293 0.9 2.6 0.00 0.08 0.08 64 1012.4
20260507175528 67 308 0.9 2.6 0.00 0.08 0.08 63 1012.5
20260507174521 68 0.0 0.0 0.00 0.08 0.08 63 1012.5
20260507173617 68 0.0 0.0 0.00 0.08 0.08 62 1012.5
20260507172529 69 291 0.9 2.6 0.00 0.08 0.08 63 1012.4
20260507171536 70 307 0.0 1.7 0.00 0.08 0.08 62 1012.4
20260507170528 70 279 0.9 3.5 0.00 0.08 0.08 62 1012.6
20260507165522 71 294 0.9 3.5 0.00 0.08 0.08 62 1012.5
20260507164535 71 273 0.0 1.7 0.00 0.08 0.08 61 1012.3
20260507163548 71 294 0.9 2.6 0.00 0.08 0.08 62 1012.2
20260507162522 71 272 0.9 3.5 0.00 0.08 0.08 62 1012.2
20260507161515 71 260 1.7 3.5 0.00 0.08 0.08 62 1012.3
20260507160530 71 279 1.7 6.1 0.00 0.08 0.08 61 1012.3
20260507155523 72 290 1.7 3.5 0.00 0.08 0.08 61 1012.3
20260507154537 73 285 0.9 3.5 0.00 0.08 0.08 61 1012.3
20260507153530 71 290 0.9 2.6 0.00 0.08 0.08 63 1012.2
20260507152522 72 266 1.7 6.1 0.00 0.08 0.08 61 1012.3
20260507151529 73 267 1.7 3.5 0.00 0.08 0.08 60 1012.4
20260507150520 73 273 0.9 2.6 0.00 0.08 0.08 62 1012.4
20260507145534 73 258 2.6 6.1 0.00 0.08 0.08 63 1012.5
20260507144525 74 260 1.7 5.2 0.00 0.08 0.08 62 1012.6
20260507143517 73 271 1.7 5.2 0.00 0.08 0.08 63 1012.5
20260507142527 72 254 1.7 3.5 0.00 0.08 0.08 65 1012.6
20260507141520 71 228 2.6 6.1 0.00 0.08 0.08 67 1012.9
20260507140532 71 245 2.6 6.1 0.00 0.08 0.08 67 1013.1
20260507135525 71 246 1.7 3.5 0.00 0.08 0.08 66 1013.2
20260507134519 71 268 1.7 5.2 0.00 0.08 0.08 66 1013.5
20260507133535 72 253 0.9 6.1 0.00 0.08 0.08 65 1013.6
20260507132526 71 262 1.7 3.5 0.00 0.08 0.08 63 1013.5
20260507131520 73 233 2.6 3.5 0.00 0.08 0.08 54 1013.6
20260507130533 72 283 0.9 3.5 0.00 0.08 0.08 55 1013.7
20260507125528 71 270 2.6 3.5 0.00 0.08 0.08 58 1013.7
20260507124517 74 250 0.9 3.5 0.00 0.08 0.08 57 1013.7
20260507123526 72 0.0 0.0 0.00 0.08 0.08 58 1013.9
20260507122517 72 269 1.7 5.2 0.00 0.08 0.08 60 1013.9
20260507121525 72 268 1.7 5.2 0.00 0.08 0.08 60 1014.0
20260507120532 72 0.0 0.0 0.00 0.08 0.08 59 1014.1
20260507115526 71 291 1.7 2.6 0.00 0.08 0.08 62 1014.1
20260507114520 71 235 0.9 2.6 0.00 0.08 0.08 62 1014.0
20260507113533 73 235 0.9 5.2 0.00 0.08 0.08 61 1014.2
20260507112547 73 345 0.9 2.6 0.00 0.08 0.08 60 1014.2
20260507111518 71 236 1.7 3.5 0.00 0.08 0.08 64 1014.4
20260507110612 71 25 1.7 3.5 0.00 0.08 0.08 58 1014.3
20260507105524 70 310 0.9 2.6 0.00 0.08 0.08 59 1014.5
20260507104537 70 274 0.9 3.5 0.00 0.08 0.08 61 1014.5
20260507103530 73 339 0.9 5.2 0.00 0.08 0.08 61 1014.6
20260507102524 70 299 0.9 2.6 0.00 0.08 0.08 64 1014.7
20260507101519 71 217 0.0 1.7 0.00 0.08 0.08 64 1014.8
20260507100528 69 227 0.9 5.2 0.00 0.08 0.08 65 1014.7
20260507095536 67 245 2.6 3.5 0.00 0.08 0.08 69 1014.9
20260507094522 68 203 1.7 5.2 0.00 0.08 0.08 69 1014.8
20260507093551 67 133 0.0 5.2 0.00 0.08 0.08 68 1014.8
20260507092523 66 148 1.7 5.2 0.00 0.08 0.08 71 1014.7
20260507091536 67 223 0.9 3.5 0.00 0.08 0.08 70 1014.8
20260507090531 66 171 1.7 5.2 0.00 0.08 0.08 73 1014.7
20260507085523 65 94 1.7 5.2 0.00 0.08 0.08 73 1014.9
20260507084517 66 135 1.7 5.2 0.00 0.08 0.08 73 1014.9
20260507083531 66 0.0 0.0 0.00 0.08 0.08 72 1014.9
20260507082524 65 251 0.0 0.9 0.00 0.08 0.08 74 1015.0
20260507081519 65 78 0.9 3.5 0.00 0.08 0.08 75 1015.1
20260507080531 65 293 0.0 0.9 0.00 0.08 0.08 73 1015.1
20260507075524 63 138 0.9 3.5 0.00 0.08 0.08 76 1015.1
20260507073531 63 210 0.0 1.7 0.00 0.08 0.08 76 1015.2
20260507072524 60 245 2.6 3.5 0.00 0.08 0.08 80 1015.3
20260507071518 61 227 2.6 3.5 0.00 0.08 0.08 79 1015.2
20260507070612 59 233 1.7 3.5 0.00 0.08 0.08 84 1015.0
20260507065525 59 215 0.9 2.6 0.00 0.08 0.08 88 1014.9
20260507064519 57 0.0 0.0 0.00 0.08 0.08 96 1014.8
20260507063615 58 0.0 0.0 0.00 0.08 0.08 98 1014.7
20260507062547 58 211 0.0 1.7 0.00 0.08 0.08 99 1014.7
20260507061519 56 182 0.9 2.6 0.00 0.09 0.08 99 1014.7
20260507060533 56 0.0 0.0 0.00 0.09 0.08 99 1014.7
20260507055526 55 0.0 0.0 0.00 0.11 0.08 99 1014.7
20260507054540 54 0.0 0.0 0.00 0.11 0.08 99 1014.8
20260507053534 54 0.0 0.0 0.00 0.12 0.08 99 1014.8
20260507052527 54 0.0 0.0 0.00 0.12 0.08 99 1014.8
20260507051540 54 0.0 0.0 0.00 0.12 0.08 99 1014.8
20260507050554 54 256 0.0 0.9 0.00 0.12 0.08 99 1014.7
20260507045528 54 253 0.0 0.9 0.00 0.12 0.08 98 1014.8
20260507044541 54 0.0 0.0 0.00 0.12 0.08 98 1014.6
20260507043535 53 0.0 0.0 0.00 0.12 0.08 98 1014.5
20260507042548 53 0.0 0.0 0.00 0.12 0.08 98 1014.5
20260507041541 53 0.0 0.0 0.00 0.12 0.08 98 1014.6
20260507040535 53 253 0.9 1.7 0.00 0.12 0.08 98 1014.7
20260507035549 53 233 0.0 1.7 0.00 0.12 0.08 98 1014.5
20260507034522 53 0.0 0.0 0.02 0.12 0.08 98 1014.5
20260507033536 53 0.0 0.0 0.03 0.12 0.08 98 1014.4
20260507032549 53 0.0 0.0 0.03 0.12 0.08 98 1014.4
20260507031522 53 281 0.0 0.9 0.03 0.12 0.08 98 1014.5
20260507030536 53 0.0 0.0 0.03 0.12 0.08 98 1014.5
20260507025529 53 0.0 0.0 0.03 0.12 0.08 98 1014.5
20260507024525 53 0.0 0.0 0.02 0.10 0.06 97 1014.5
20260507023516 53 0.0 0.0 0.01 0.09 0.05 97 1014.3
20260507022528 53 0.0 0.0 0.02 0.09 0.05 97 1014.5
20260507021522 53 0.0 0.0 0.03 0.09 0.05 97 1014.5
20260507020535 54 264 0.0 1.7 0.05 0.09 0.05 97 1014.5
20260507015528 54 0.0 0.0 0.05 0.09 0.05 96 1014.5
20260507014522 54 0.0 0.0 0.04 0.08 0.04 96 1014.6
20260507013537 54 0.0 0.0 0.04 0.08 0.04 96 1014.7
20260507012529 54 0.0 0.0 0.03 0.07 0.03 95 1014.7
20260507011522 54 205 0.9 1.7 0.02 0.06 0.02 94 1014.5
20260507010536 54 129 0.9 2.6 0.00 0.04 0.00 93 1014.6
20260507005531 54 135 0.0 2.6 0.00 0.04 0.00 93 1014.6
20260507004522 54 139 0.0 2.6 0.00 0.04 0.00 92 1014.7
20260507003518 54 104 0.0 2.6 0.00 0.04 0.00 92 1014.8
20260507002530 55 0.0 0.0 0.00 0.04 0.00 92 1014.7
20260507001523 55 128 0.0 1.7 0.00 0.04 0.00 92 1014.7
20260507000536 55 112 0.0 5.2 0.00 0.04 0.00 91 1014.7
20260506235530 55 204 0.0 0.9 0.00 0.04 0.00 91 1014.8
20260506234523 55 204 0.9 3.5 0.00 0.04 0.00 90 1014.8
20260506233517 55 198 1.7 3.5 0.00 0.04 0.00 90 1014.8
20260506232533 55 169 1.7 2.6 0.00 0.04 0.00 90 1014.8
20260506231526 55 212 0.9 2.6 0.00 0.04 0.00 90 1014.8
20260506230518 55 138 1.7 6.1 0.00 0.04 0.00 90 1015.0
20260506225551 55 181 1.7 5.2 0.00 0.04 0.00 90 1014.9
20260506224525 55 200 0.9 5.2 0.00 0.04 0.00 89 1015.0